Dewpoint
8 9 9 9 9 9 8 9 8 9 9 8 8 8 8 8 8 8 7 7 8 8 8 8 8 8 8 8 8 8 9 8 8 9 9 8 5 0 -5 0 0 0 -6
8 8 9 9 8 9 8 8 8 9 9 8 8 8 8 8 8 8 7 8 8 7 7 7 7 8 7 8 8 8 8 8 8 8 9 9 7 2 -5 -4 4 1 1
1 3 9 9 9 9 9 9 9 9 9 9 8 8 7 7 7 7 7 7 7 7 7 7 7 7 7 7 7 7 7 8 8 8 8 8 7 5 0 -2 0 8 4
2 -1 5 9 6 7 8 9 9 9 9 9 8 8 8 7 6 7 7 7 7 7 6 6 3 7 7 6 7 7 -0 7 8 8 8 8 7 7 2 6 5 8 7
8 3 2 7 6 4 7 8 9 9 9 9 8 8 8 7 7 6 6 7 5 6 6 3 3 5 5 4 5 6 6 -4 3 6 7 8 8 7 6 7 6 7 7
11 8 2 1 4 5 4 7 7 9 9 9 7 8 7 7 7 7 7 7 7 6 5 3 6 4 3 3 2 5 5 2 -4 -4 1 4 3 3 7 7 7 7 7
11 11 8 1 2 1 2 7 8 7 8 8 8 7 7 6 6 6 6 7 7 6 5 3 2 2 2 -2 -2 -1 -3 -4 -5 -3 0 6 7 6 6 7 6 7 7
10 11 11 8 3 2 3 6 6 7 7 7 9 9 8 8 8 6 6 6 6 6 5 5 4 3 -0 -1 -2 -3 -3 -4 -6 5 1 3 7 6 6 6 6 7 6
10 11 11 11 8 5 4 4 5 7 7 7 7 9 8 8 7 6 6 7 7 6 6 6 5 5 4 3 2 -0 -2 -4 -3 3 5 3 4 6 6 6 6 5 6
11 11 11 11 11 9 7 7 6 7 7 8 8 8 7 7 7 7 6 7 7 7 7 6 6 5 5 5 5 4 2 1 -2 -3 5 6 5 5 6 5 6 6 5
10 11 11 10 10 10 9 8 8 8 7 7 8 8 8 7 7 8 7 8 6 6 7 6 7 6 5 5 5 5 5 5 4 0 -3 3 5 4 5 5 5 6 5
11 11 10 10 10 9 10 9 9 10 9 9 8 9 8 8 8 8 8 7 7 7 6 6 5 5 6 5 4 4 5 5 5 4 3 -2 3 5 5 6 5 5 4
10 10 10 10 10 11 11 10 11 11 11 10 9 8 8 8 9 9 8 8 8 8 7 6 5 6 6 5 4 3 2 4 5 5 5 4 -1 3 5 5 5 5 5
8 7 8 9 10 10 10 9 8 9 10 10 10 9 9 9 8 8 8 9 9 8 8 6 6 6 5 5 5 5 2 -1 1 3 3 4 5 1 3 5 5 5 4
9 9 9 9 10 9 10 10 10 8 7 5 8 10 9 9 7 7 8 8 8 8 7 7 8 5 5 6 5 4 4 -1 1 2 2 2 4 5 3 2 4 4 5
8 6 5 4 5 7 8 8 9 8 8 5 7 9 9 7 7 7 8 7 8 8 8 7 8 5 4 5 5 4 4 4 2 3 4 2 2 4 5 3 1 3 3
5 4 3 3 3 3 4 6 6 7 8 7 6 7 7 6 7 7 6 6 7 8 8 8 7 6 5 5 5 4 4 4 5 4 3 4 3 1 3 5 3 0 1
2 3 4 5 5 5 5 5 5 5 6 7 7 6 7 8 7 7 7 7 7 8 7 7 7 7 5 4 5 5 5 5 5 5 5 4 4 4 0 2 3 4 2
2 3 5 5 6 7 6 6 6 5 5 5 6 7 5 7 7 7 7 6 6 7 7 6 6 5 5 5 5 6 6 6 5 5 5 6 4 4 4 2 -0 -1 3
5 3 3 3 6 6 7 6 5 5 5 5 5 6 5 6 7 7 7 7 6 6 6 6 6 5 5 5 5 6 6 6 5 6 6 6 6 4 5 4 3 2 -1
4 4 5 6 7 7 6 6 4 5 6 6 6 5 4 5 6 6 6 6 7 5 6 6 6 5 4 4 5 5 6 6 7 6 6 6 6 6 6 5 5 4 2
4 4 4 4 6 6 5 4 5 5 5 6 6 6 6 5 5 4 5 4 5 5 5 5 5 5 5 5 6 6 5 6 6 7 6 6 7 7 6 5 5 5 3
3 4 4 4 4 4 4 5 5 5 6 6 7 7 7 6 5 4 5 5 5 5 5 5 5 5 5 5 6 5 5 7 7 7 7 7 6 6 7 6 5 5 4
2 3 4 4 4 4 4 5 6 6 6 7 7 7 7 6 5 5 4 4 5 5 5 4 5 5 6 5 5 5 5 7 6 7 7 7 7 7 6 5 5 4 3
1 2 2 3 4 5 5 6 6 6 6 6 7 7 6 6 6 5 5 5 5 5 6 6 6 6 6 6 5 6 6 6 7 6 6 6 6 7 6 6 5 5 4
0 1 1 2 4 4 5 6 6 6 6 5 6 6 6 5 4 3 4 5 5 5 5 5 5 5 4 5 5 6 6 7 7 6 6 6 5 6 6 6 4 3 3
Wind_Speed
17 17 16 16 16 15 13 13 12 12 11 11 12 12 13 10 12 10 12 13 13 13 13 12 12 13 9 11 9 7 8 9 10 11 13 14 16 15 13 15 13 14 12
17 17 17 15 17 16 14 13 12 12 11 10 11 12 11 11 11 10 10 10 12 9 7 9 9 10 8 8 9 9 8 7 6 10 10 11 13 13 13 14 14 14 13
17 18 16 16 17 17 16 14 13 11 10 10 10 11 11 10 10 9 10 9 8 7 8 9 9 10 12 12 10 5 9 7 6 6 5 6 9 13 12 12 12 14 12
17 17 17 16 19 20 18 16 13 11 10 10 9 9 10 10 9 8 8 6 6 3 4 4 6 9 7 7 8 8 6 8 6 5 3 0 6 9 9 10 11 11 12
17 16 18 16 18 18 19 16 14 11 10 10 9 7 8 8 8 8 7 7 4 3 3 2 7 5 2 5 7 7 8 4 2 3 4 3 1 5 7 8 8 8 11
16 17 17 18 18 17 19 18 14 13 10 10 9 7 6 6 6 4 4 5 6 10 7 6 5 5 6 8 8 7 5 6 5 2 3 2 4 5 4 7 8 7 9
20 17 16 18 18 18 19 18 15 14 15 11 9 6 2 1 3 3 4 3 5 7 9 10 8 6 7 8 7 7 6 7 5 4 3 6 8 8 9 7 6 4 6
23 19 17 17 17 17 20 20 17 17 15 14 8 6 3 2 4 3 4 5 6 7 7 8 9 9 7 7 8 8 7 7 7 5 4 3 5 5 5 3 3 2 2
22 21 19 17 18 18 18 18 17 13 13 16 13 7 3 2 2 2 2 5 7 8 9 9 8 8 8 8 8 8 7 7 7 4 5 6 3 3 3 2 0 3 1
27 23 21 19 17 17 17 16 17 17 15 13 15 13 8 4 2 1 2 6 5 7 9 9 10 10 9 9 9 8 7 7 6 4 3 4 6 1 1 1 3 3 1
29 27 25 21 20 19 17 17 16 17 15 16 14 13 12 11 10 6 6 4 6 9 10 12 10 9 10 10 10 9 8 7 7 5 5 4 5 3 3 4 3 5 5
26 25 25 24 24 23 23 21 20 19 18 20 18 16 14 12 10 9 7 9 10 10 10 12 14 12 11 12 11 10 11 10 8 7 6 6 5 7 4 7 8 8 7
20 20 23 24 24 24 22 23 21 22 22 22 20 20 18 16 14 13 11 9 12 13 15 14 13 12 11 12 11 10 11 12 11 8 8 8 10 9 10 10 10 11 9
19 21 22 23 21 20 20 21 21 23 23 22 24 25 23 20 17 18 17 12 11 10 11 14 15 12 11 11 11 11 11 10 11 10 10 9 12 12 13 12 12 13 12
25 24 24 25 24 24 23 23 24 25 24 24 22 26 26 21 21 18 20 19 17 15 16 12 9 13 13 13 12 12 12 9 7 8 10 11 13 15 15 16 15 13 14
31 29 29 30 31 31 31 29 28 27 28 26 25 22 25 23 23 22 22 22 21 21 18 14 13 15 18 17 15 14 13 11 10 9 10 11 13 16 16 17 18 17 15
33 32 31 30 30 31 32 33 34 32 32 31 27 26 27 26 26 25 24 22 24 23 20 18 20 21 23 21 19 17 18 17 15 13 13 12 12 12 14 16 17 20 21
28 28 29 28 27 27 27 28 29 30 31 32 33 31 29 29 28 28 27 27 25 25 23 20 17 20 25 21 20 21 21 21 21 20 18 16 14 14 13 14 16 18 20
24 25 26 29 28 28 27 26 25 24 26 28 30 32 33 32 31 31 29 26 26 25 26 22 21 19 22 22 21 22 22 24 25 25 23 21 19 16 15 15 14 15 19
22 23 23 27 27 28 28 26 24 22 24 25 26 29 33 35 34 30 26 27 26 25 25 25 25 25 24 24 26 27 28 27 25 24 23 24 22 22 20 19 17 16 17
20 20 20 23 25 26 28 25 22 23 23 24 24 24 22 25 28 28 26 28 28 28 27 27 27 27 27 27 28 27 31 29 29 29 28 26 26 25 25 23 21 19 19
14 19 19 20 23 25 25 23 22 23 24 25 28 26 24 22 24 29 30 32 30 31 30 28 28 29 30 31 32 29 29 28 28 26 23 28 26 28 27 25 22 21 20
14 15 15 19 23 25 25 24 23 22 23 24 25 27 25 24 21 23 25 26 27 27 27 27 30 31 30 29 29 29 31 25 27 26 25 27 27 25 25 24 23 24 22
17 17 18 17 20 19 23 24 23 24 23 23 23 24 28 25 23 22 26 29 29 29 29 30 33 33 32 30 28 31 29 31 28 26 25 27 26 23 22 23 23 22 21
15 15 16 17 20 19 22 23 23 25 26 25 24 25 26 26 26 25 28 31 34 35 33 33 34 35 34 31 31 30 33 29 31 29 26 27 30 28 28 25 24 24 24
15 15 16 18 16 20 21 21 24 25 26 27 28 29 28 25 25 28 31 33 36 36 33 34 34 33 31 31 31 33 32 29 31 30 32 30 29 27 26 26 24 24 23
Wind_Direction
155 158 152 159 158 152 143 140 133 127 116 100 90 88 96 100 101 103 96 84 83 71 78 77 64 57 99 102 106 127 116 100 77 50 43 30 35 46 59 56 56 59 68
161 157 157 157 157 157 145 140 135 133 122 108 94 84 97 101 101 103 90 102 91 80 75 55 53 76 63 84 119 106 130 125 115 77 61 36 19 36 52 55 55 59 60
163 161 156 157 158 163 156 150 139 132 127 119 103 90 91 93 102 113 107 114 95 83 88 74 49 53 58 57 53 102 121 138 141 120 92 45 18 11 51 50 54 59 61
160 162 163 162 162 166 170 163 153 143 133 128 119 100 89 88 99 103 94 96 120 90 80 85 39 64 62 46 56 28 103 134 147 167 180 131 1 358 31 46 62 55 63
158 162 169 171 170 171 174 169 166 159 147 141 135 115 102 96 88 91 87 84 68 83 80 79 48 93 49 351 53 41 25 81 144 166 191 220 306 348 24 63 56 64 68
164 163 168 176 177 177 177 175 174 171 165 159 150 132 100 105 96 96 81 75 54 51 42 38 29 6 8 12 19 43 10 15 30 60 83 306 296 326 40 75 70 61 78
179 171 167 174 179 178 175 173 173 173 176 172 161 158 148 49 21 23 38 45 31 38 38 36 26 24 359 2 6 2 359 5 27 36 114 59 51 39 62 81 75 72 83
186 182 175 177 181 185 178 179 182 177 183 183 173 166 170 252 268 302 346 11 9 7 14 21 16 18 6 356 350 353 356 354 0 24 19 110 103 82 59 80 30 85 11
192 193 188 186 186 187 193 193 193 200 202 194 189 176 156 162 140 48 15 23 5 1 351 347 349 353 353 354 341 335 341 345 350 14 334 12 169 164 164 136 297 336 325
197 199 201 197 195 199 196 206 208 209 214 216 210 212 211 218 188 204 323 335 345 358 357 347 336 332 326 327 329 333 321 325 330 337 313 333 334 79 4 228 196 275 139
197 200 204 203 208 209 203 216 214 222 225 231 225 226 233 246 254 248 279 282 301 314 324 324 333 340 333 323 307 308 316 322 302 303 298 278 307 356 299 292 286 265 280
208 209 210 212 211 214 216 215 220 229 226 225 232 235 242 256 257 256 253 274 290 293 297 306 317 319 323 327 318 292 291 298 311 283 278 270 255 271 282 272 291 303 297
209 208 212 217 219 220 224 219 221 235 235 239 238 239 245 255 257 257 262 266 278 283 284 292 290 302 306 316 318 309 293 285 287 293 280 265 252 242 254 265 277 287 298
215 218 219 218 214 223 226 228 232 238 239 245 243 236 242 250 260 265 265 257 276 273 279 284 285 295 293 301 305 300 309 298 285 282 284 276 263 256 249 254 266 280 284
220 224 227 229 232 233 231 236 240 243 244 248 251 238 238 250 257 263 265 262 265 270 274 282 280 288 296 295 285 288 293 302 292 294 288 285 271 267 251 252 256 265 278
230 232 234 236 235 234 236 236 237 238 242 246 246 238 236 249 255 258 258 260 262 264 268 273 272 280 293 295 281 270 273 286 283 297 301 297 286 274 258 250 250 257 267
230 232 234 235 235 235 234 235 236 238 240 242 242 242 241 246 252 257 254 261 261 259 260 266 269 279 288 286 282 274 265 270 278 283 287 292 298 290 273 258 257 257 262
226 224 225 227 228 229 231 231 232 236 238 238 239 241 243 246 249 254 258 258 262 261 263 263 268 277 284 282 280 280 269 265 271 276 277 277 285 289 279 270 268 266 263
219 218 220 225 226 228 229 232 234 239 243 245 241 243 244 248 251 254 253 255 258 258 264 265 277 279 282 278 280 277 274 271 267 272 274 271 271 276 277 274 274 273 265
219 223 229 227 226 226 230 235 238 242 245 245 245 247 250 249 251 250 247 254 257 263 264 263 268 274 275 275 275 275 279 281 278 277 273 269 266 264 268 268 271 274 274
222 227 227 222 222 225 227 231 239 246 245 244 244 244 244 251 253 247 247 252 254 260 263 264 265 267 270 270 270 278 282 283 282 281 277 263 266 264 263 264 267 272 272
229 226 227 226 224 226 229 234 239 244 245 246 244 245 244 248 259 253 253 253 257 258 260 259 262 264 266 270 274 276 280 282 282 286 282 269 264 266 260 259 263 265 261
227 232 242 238 236 234 235 237 235 240 241 244 246 245 245 246 247 255 260 254 253 253 255 261 263 264 269 273 276 277 277 273 283 279 279 268 266 268 259 251 256 259 257
226 235 238 237 240 238 236 233 236 236 240 241 244 244 237 236 238 246 256 260 253 253 256 258 262 269 272 272 270 278 280 278 276 274 268 267 263 261 248 251 259 250 250
231 229 232 243 237 235 232 237 240 242 239 238 241 240 241 243 252 256 253 257 258 258 255 257 262 268 270 269 267 272 274 267 266 265 268 271 264 258 252 252 246 251 257
241 240 238 237 239 235 234 233 235 241 245 247 247 245 245 245 248 257 260 259 257 260 264 267 262 264 268 267 263 259 264 265 264 273 264 269 264 256 255 241 250 261 264
Height
1579 1582 1585 1587 1590 1592 1594 1596 1598 1599 1600 1600 1601 1601 1602 1603 1604 1604 1605 1605 1605 1605 1605 1605 1604 1602 1602 1602 1602 1603 1603 1603 1603 1602 1600 1598 1596 1595 1593 1592 1591 1589 1588
1578 1580 1584 1587 1589 1593 1595 1597 1599 1600 1601 1602 1602 1602 1603 1604 1606 1607 1606 1606 1606 1607 1607 1606 1606 1605 1604 1603 1603 1603 1604 1604 1605 1604 1603 1601 1599 1597 1595 1594 1593 1592 1591
1577 1579 1584 1586 1588 1592 1595 1597 1599 1601 1602 1603 1604 1605 1606 1606 1607 1606 1608 1608 1609 1609 1608 1608 1607 1606 1606 1605 1604 1603 1603 1605 1605 1605 1604 1603 1601 1599 1598 1596 1595 1595 1593
1577 1579 1582 1586 1587 1591 1594 1597 1600 1602 1604 1605 1606 1606 1607 1608 1608 1608 1609 1610 1609 1610 1609 1609 1608 1608 1608 1607 1606 1605 1603 1604 1605 1605 1605 1604 1603 1601 1599 1598 1597 1597 1595
1576 1579 1582 1585 1587 1590 1594 1597 1600 1603 1604 1606 1607 1608 1609 1610 1611 1611 1612 1611 1610 1610 1609 1609 1609 1609 1608 1608 1607 1606 1605 1604 1604 1604 1604 1604 1604 1602 1600 1599 1599 1599 1597
1576 1578 1581 1584 1587 1590 1593 1597 1599 1602 1605 1606 1607 1609 1609 1610 1611 1612 1613 1613 1612 1611 1610 1610 1610 1609 1608 1608 1608 1607 1606 1605 1604 1604 1604 1604 1604 1602 1601 1601 1601 1601 1600
1576 1578 1581 1583 1586 1589 1592 1596 1599 1601 1604 1606 1607 1609 1610 1611 1611 1612 1613 1613 1612 1612 1612 1611 1611 1610 1609 1609 1608 1608 1607 1606 1605 1604 1604 1604 1605 1604 1603 1603 1603 1602 1602
1574 1577 1580 1583 1585 1588 1591 1594 1597 1599 1602 1605 1609 1610 1612 1613 1612 1612 1613 1613 1613 1613 1612 1612 1612 1611 1610 1609 1609 1608 1608 1607 1606 1605 1604 1604 1606 1606 1605 1605 1604 1603 1602
1573 1576 1579 1582 1585 1588 1590 1593 1596 1599 1601 1603 1606 1609 1610 1612 1613 1613 1613 1613 1613 1613 1613 1612 1612 1611 1611 1610 1609 1608 1608 1608 1607 1606 1606 1604 1604 1605 1605 1605 1605 1604 1602
1570 1575 1578 1581 1585 1587 1590 1592 1595 1597 1599 1601 1604 1606 1608 1610 1612 1613 1613 1613 1613 1613 1612 1612 1611 1610 1610 1610 1609 1609 1608 1608 1607 1607 1607 1606 1604 1604 1604 1604 1605 1604 1603
1567 1571 1575 1578 1582 1585 1588 1591 1594 1596 1598 1600 1602 1604 1606 1608 1609 1611 1612 1612 1612 1612 1612 1612 1611 1610 1609 1608 1607 1607 1607 1607 1607 1606 1606 1606 1606 1605 1605 1605 1604 1603 1602
1565 1568 1572 1576 1579 1582 1586 1589 1592 1594 1596 1598 1600 1602 1604 1606 1607 1608 1609 1610 1610 1610 1610 1610 1610 1609 1608 1607 1606 1605 1605 1605 1605 1605 1605 1605 1605 1605 1605 1605 1604 1603 1601
1561 1565 1569 1573 1576 1579 1582 1585 1588 1590 1593 1595 1597 1599 1601 1603 1604 1606 1606 1607 1608 1608 1607 1607 1607 1607 1607 1606 1605 1604 1603 1603 1603 1603 1603 1603 1603 1603 1604 1604 1603 1602 1601
1558 1562 1566 1569 1573 1576 1579 1582 1584 1587 1588 1591 1592 1595 1597 1600 1601 1602 1603 1605 1605 1605 1605 1605 1604 1605 1604 1604 1603 1603 1602 1601 1600 1600 1601 1601 1600 1601 1602 1602 1602 1601 1600
1554 1558 1562 1566 1569 1572 1575 1578 1580 1582 1584 1586 1588 1589 1593 1595 1597 1598 1599 1600 1602 1602 1603 1603 1602 1601 1601 1601 1601 1601 1601 1600 1599 1598 1598 1598 1598 1597 1598 1599 1599 1600 1598
1549 1553 1556 1560 1563 1566 1569 1572 1574 1577 1579 1580 1583 1585 1588 1590 1591 1593 1595 1596 1597 1598 1598 1600 1598 1597 1597 1598 1598 1598 1598 1598 1597 1597 1596 1595 1595 1594 1594 1595 1596 1596 1596
1544 1547 1550 1553 1556 1560 1563 1565 1568 1571 1573 1576 1578 1580 1582 1584 1586 1587 1589 1591 1591 1592 1593 1594 1593 1593 1593 1593 1593 1594 1594 1594 1594 1594 1594 1593 1592 1591 1590 1591 1592 1592 1592
1537 1541 1544 1547 1550 1553 1556 1558 1561 1564 1567 1569 1572 1574 1576 1578 1580 1582 1583 1584 1586 1587 1588 1588 1589 1589 1588 1589 1589 1589 1589 1589 1589 1589 1590 1589 1589 1588 1587 1587 1587 1587 1587
1532 1535 1538 1542 1545 1548 1550 1552 1556 1558 1561 1563 1565 1567 1570 1572 1573 1575 1577 1578 1580 1581 1582 1582 1583 1584 1583 1583 1583 1584 1584 1583 1584 1584 1585 1585 1585 1585 1584 1584 1583 1583 1583
1527 1530 1533 1536 1539 1542 1545 1547 1550 1552 1555 1557 1559 1561 1563 1565 1566 1569 1570 1572 1574 1575 1576 1577 1578 1579 1579 1580 1578 1579 1579 1578 1578 1578 1578 1579 1579 1580 1580 1580 1580 1579 1579
1523 1526 1528 1531 1534 1536 1539 1541 1544 1547 1549 1551 1553 1554 1556 1558 1560 1562 1564 1565 1567 1569 1570 1571 1572 1573 1573 1574 1574 1574 1573 1573 1572 1571 1571 1572 1572 1573 1574 1575 1575 1575 1574
1519 1521 1524 1526 1528 1531 1533 1536 1538 1540 1543 1545 1546 1548 1550 1552 1554 1556 1558 1560 1561 1563 1564 1564 1565 1565 1567 1567 1568 1567 1567 1566 1565 1564 1563 1565 1565 1565 1566 1568 1569 1569 1569
1516 1518 1519 1521 1523 1525 1527 1530 1532 1534 1536 1538 1540 1542 1544 1547 1549 1550 1551 1553 1555 1556 1558 1559 1558 1559 1560 1561 1562 1561 1561 1560 1559 1559 1558 1557 1557 1558 1559 1561 1562 1563 1564
1511 1513 1515 1516 1518 1520 1522 1524 1526 1527 1529 1531 1534 1536 1538 1540 1543 1545 1546 1547 1548 1548 1550 1551 1551 1552 1553 1554 1554 1554 1554 1553 1553 1553 1552 1550 1550 1552 1553 1555 1556 1557 1558
1507 1509 1510 1512 1514 1516 1517 1518 1520 1522 1523 1526 1528 1530 1532 1534 1537 1539 1539 1539 1539 1540 1542 1543 1543 1544 1545 1546 1547 1547 1546 1546 1544 1546 1547 1546 1545 1546 1548 1549 1550 1551 1552
1503 1504 1506 1508 1509 1511 1511 1512 1514 1515 1516 1519 1521 1523 1525 1527 1530 1531 1531 1531 1530 1533 1534 1534 1536 1536 1537 1538 1539 1539 1539 1538 1539 1539 1540 1541 1539 1541 1541 1542 1544 1545 1546